Location: Bukovany
(49.8234°N, 14.6297°E)
Time: 17:17:27
(UTC+00:00)

USA 281 - Pass Details

Date: 17 November 2025
Orbit: 1079 x 1080 km, 106.0° (Epoch: 08 December)

Event Time Altitude Azimuth Distance (km) Brightness Sun altitude
Exits shadow 19:02:02 57° 268° (W) 1,258 3.6 -36.2°
Drops below altitude 10° 19:08:01 10° 328° (NNW) 2,930 5.9 -37.1°
Sets 19:10:36 0° 332° (NNW) 3,890 6.6 -37.5°
